Location: Dimsdale
(55.1333°N, 118.9833°W)
Time: 12:06:04
(UTC+00:00)

PCSat - Visible Passes

Search period start: 05 December 2023 00:00
Search period end: 15 December 2023 00:00
Orbit: 784 x 792 km, 67.1° (Epoch: 04 December)

Date Brightness Start Highest point End Pass type
(mag) Time Alt. Az. Time Alt. Az. Time Alt. Az.
05 Dec 12.4 10:46:33 12° E 10:46:33 12° E 10:47:39 10° E visible
05 Dec 10.1 12:27:17 53° SSE 12:27:53 56° ESE 12:33:11 10° NE visible
05 Dec 9.9 14:08:00 20° W 14:11:26 45° NW 14:16:40 10° NE visible
06 Dec 10.7 11:57:18 41° E 11:57:18 41° E 12:01:36 10° NE visible
06 Dec 9.7 13:38:00 37° W 13:39:49 53° NW 13:45:10 10° NE visible
06 Dec 10.7 15:19:47 10° WNW 15:24:18 26° NNW 15:28:50 10° NE visible
07 Dec 11.5 11:27:10 26° ENE 11:27:10 26° ENE 11:29:58 10° NE visible
07 Dec 9.5 13:07:52 62° WNW 13:08:14 64° NW 13:13:39 10° NE visible
07 Dec 10.6 14:48:34 13° WNW 14:52:33 28° NNW 14:57:13 10° NE visible
08 Dec 12.1 10:56:55 16° ENE 10:56:55 16° ENE 10:58:16 10° ENE visible
08 Dec 9.8 12:37:37 61° NNE 12:37:37 61° NNE 12:42:09 10° NE visible
08 Dec 10.5 14:18:19 21° WNW 14:20:50 30° NNW 14:25:38 10° NE visible
09 Dec 10.7 12:07:17 39° NE 12:07:17 39° NE 12:10:39 10° NE visible
09 Dec 10.3 13:47:59 31° NW 13:49:08 34° NNW 13:54:04 10° NE visible
10 Dec 11.5 11:36:53 25° NE 11:36:53 25° NE 11:39:07 10° NE visible
10 Dec 10.2 13:17:34 39° NNW 13:17:34 39° NNW 13:22:33 10° NE visible
10 Dec 10.9 14:58:15 12° NW 15:02:12 24° N 15:06:33 10° NE visible
11 Dec 12.1 11:06:25 16° NE 11:06:25 16° NE 11:07:34 10° NE visible
11 Dec 10.4 12:47:06 38° N 12:47:06 38° N 12:51:02 10° NE visible
11 Dec 10.9 14:27:47 17° NW 14:30:25 25° N 14:34:51 10° NE visible
12 Dec 12.6 10:35:56 10° NE 10:35:56 10° NE 10:35:58 10° NE visible
12 Dec 11.0 12:16:36 31° NNE 12:16:36 31° NNE 12:19:32 10° NE visible
12 Dec 10.7 13:57:17 23° NW 13:58:39 26° NNW 14:03:12 10° NE visible
13 Dec 11.5 11:46:03 22° NE 11:46:03 22° NE 11:48:01 10° NE visible
13 Dec 10.7 13:26:44 28° NNW 13:26:54 28° NNW 13:31:34 10° NE visible
13 Dec 11.0 15:07:30 10° NW 15:11:53 24° N 15:16:16 10° ENE visible
14 Dec 12.1 11:15:30 16° NE 11:15:30 16° NE 11:16:31 10° NE visible
14 Dec 10.8 12:56:10 29° N 12:56:10 29° N 12:59:59 10° NE visible
14 Dec 11.0 14:36:50 14° NW 14:40:06 23° N 14:44:25 10° NE visible
